AirNav   TITAN Aviation Fuels
 
 1072 users online  

6OI8 Cleveland Clinic Foundation Heliport
Cleveland, Ohio, USA

GOING TO CLEVELAND?


FAA INFORMATION EFFECTIVE 09 SEPTEMBER 2021

Location

FAA Identifier: 6OI8
Lat/Long: 41-30-02.2200N 081-37-19.4700W
41-30.037000N 081-37.324500W
41.5006167,-81.6220750
(estimated)
Elevation: 724 ft. / 221 m (estimated)
Variation: 08W (2015)
Time zone: UTC -4 (UTC -5 during Standard Time)
Zip code: 44106

Heliport Operations

Heliport use: Private use. Permission required prior to landing
Activation date: 02/1982
Control tower: no
ARTCC: CLEVELAND CENTER
FSS: CLEVELAND FLIGHT SERVICE STATION
Attendance: CONTINUOUS
Wind indicator: yes
Segmented circle: no
Lights: SS-SR
Beacon: white-green-yellow (heliport)

Heliport Communications

WX ASOS at BKL (2.9 nm W): PHONE 216-241-6904
WX AWOS-3 at CGF (7 nm NE): 119.950 (216-289-4113)
WX ASOS at CLE (12 nm SW): PHONE 216-416-2729
WX AWOS-3PT at LNN (15 nm NE): 119.225 (440-942-0809)

Nearby radio navigation aids

VOR radial/distance  VOR name  Freq  Var
CXRr272/20.6CHARDON VOR/DME112.7005W
DJBr076/25.7DRYER VOR/DME113.6005W
ACOr325/30.2AKRON VOR/DME114.4004W

 
NDB name  Hdg/Dist  Freq  Var  ID
LAKELAND233/15.426308WLQL .-.. --.- .-..

Heliport Services

Runway Information

Helipad H1

Dimensions: 50 x 50 ft. / 15 x 15 m
Surface: concrete
Runway edge lights: PERI
FLD
Latitude: 41-30.037000N
Longitude: 081-37.324500W
Elevation: 724.0 ft.
Traffic pattern: leftleft

Heliport Ownership and Management from official FAA records

Ownership: Privately-owned
Owner: CLEVELAND CLINIC FOUNDATION
9500 EUCLID AVENUE
CLEVELAND, OH 44106
Phone 216-444-2256
Manager: LISA FEICHT
9500 EUCLID AVENUE
CLEVELAND, OH 44106
Phone 216-445-0301
ADDITIONAL CONTACT: J R SESOCK 216-704-5512 SESOCKJ@CCF.ORG

Heliport Operational Statistics

Aircraft based on the field: 1
Helicopters: 1
    

Additional Remarks

FOR CD CTC CLEVELAND APCH AT 216-352-2323

Instrument Procedures

There are no published instrument procedures at 6OI8.

Some nearby airports with instrument procedures:

KBKL - Burke Lakefront Airport (3 nm W)
KCGF - Cuyahoga County Airport (7 nm NE)
KCLE - Cleveland-Hopkins International Airport (12 nm SW)
KLNN - Lake County Executive Airport (15 nm NE)
2G1 - Concord Airpark (22 nm NE)
 
Loc | Ops | Rwys | IFR | FBO | Links
Com | Nav | Svcs | Stats | Notes
Area around 6OI8 (Cleveland Clinic Foundation Heliport)
 
Road maps at: MapQuest Bing Google
 
Aerial photo
No photo
 
Sectional chart

 
Airport distance calculator
Flying to Cleveland Clinic Foundation Heliport? Find the distance to fly.

From to 6OI8

Sunrise and sunset
Times for 20-Sep-2021
 Local
(UTC-4)
 Zulu
(UTC)
Morning civil twilight06:4510:45
Sunrise07:1311:13
Sunset19:2723:27
Evening civil twilight19:5523:55

Current date and time
Zulu (UTC)  21-Sep-2021 02:31:53
Local (UTC-4)  20-Sep-2021 22:31:53
 
METAR
KBKL 
3nm NW 
210153Z 16006KT 10SM CLR 26/18 A3006 RMK AO2 SLP175 T02560183
KCGF 
8nm NE 
210145Z 18005KT 10SM BKN120 24/19 A3009
KCLE 
11nm SW 
210151Z 16007KT 10SM SCT170 BKN200 24/18 A3006 RMK AO2 SLP188 T02390178
KLNN 
15nm NE 
210215Z AUTO 18004KT 10SM OVC100 24/17 A3008 RMK AO1 T02400170
TAF
KCLE 
11nm SW 
202057Z 2021/2124 19010KT P6SM VCSH BKN110 FM202200 19010KT P6SM BKN110 FM211100 17011G19KT P6SM BKN060 FM211700 18014G22KT 6SM -SHRA BR BKN040 FM211900 18013G21KT 6SM -SHRA BR BKN030
NOTAMs
Click for the latest NOTAMs
NOTAMs are issued by the DoD/FAA and will open in a separate window not controlled by AirNav.

 

 
 

Would you like to see your business listed on this page?

 If your business provides an interesting product or service to pilots, flight crews, aircraft, or users of the Cleveland Clinic Foundation Heliport, you should consider listing it here.  To start the listing process, click on the button below
 
Add a business
 

Other Pages about Cleveland Clinic Foundation Heliport

Update a link
 
Copyright © AirNav, LLC. All rights reserved. Privacy Policy  Contact